GFSSE_sfc_30mbdewp_189.txt.gz
Dewpoint
59 64 70 71 71 70 70 70 70 70 70 70 70 70 71 70 70 70 69 69 69 69 68 68 68 68 67 67 67 66 66 66 66 66 67 66 66 68 68 65 65 61 66
62 64 70 71 71 70 71 71 70 70 70 70 70 70 70 70 70 70 69 69 68 68 68 68 68 68 67 66 66 66 66 66 66 66 66 66 66 67 67 65 65 63 66
64 65 68 71 71 70 71 71 71 70 70 70 70 70 70 70 70 70 70 70 69 68 68 68 69 69 68 67 67 66 66 66 66 65 65 63 65 67 67 66 65 66 66
63 65 66 71 70 71 71 71 70 70 70 70 69 69 69 69 70 69 69 69 69 68 68 69 68 68 68 68 67 67 66 66 65 64 62 56 59 68 67 67 65 65 65
63 64 68 70 70 70 69 69 69 69 69 68 67 67 67 68 69 69 69 69 68 68 68 68 68 67 67 67 67 66 66 65 65 63 56 59 59 67 68 67 66 66 65
62 66 69 69 69 69 69 69 68 68 67 67 68 68 68 69 69 69 68 68 68 68 68 68 68 68 67 67 67 66 66 66 65 59 56 60 61 66 67 68 67 66 66
66 67 67 68 68 68 68 68 67 67 67 67 67 67 67 67 65 64 64 64 64 64 65 65 66 66 66 67 67 66 66 66 62 56 55 56 66 66 66 67 68 66 66
67 67 67 67 67 67 66 66 66 66 66 66 66 66 64 63 62 62 62 61 61 60 61 61 61 61 61 60 60 62 63 63 60 58 57 63 65 67 67 67 68 67 66
66 66 66 66 66 64 64 64 64 64 64 64 63 63 63 62 61 61 60 60 59 58 58 57 57 57 57 57 56 55 56 57 59 57 57 61 62 65 66 67 67 68 67
65 65 65 65 64 63 61 62 62 62 62 62 62 61 60 60 60 59 59 58 58 57 56 54 53 53 54 52 51 50 51 55 57 54 56 57 59 63 65 67 67 67 68
64 65 65 63 63 62 61 60 60 60 60 60 60 59 56 53 54 56 57 56 55 54 53 52 50 47 48 50 45 42 46 47 49 53 54 57 58 61 63 65 66 67 67
63 63 63 62 61 60 57 57 57 55 53 50 50 51 49 50 51 50 53 54 52 51 50 46 43 43 44 39 42 42 40 44 43 46 56 59 58 61 63 65 66 66 66
62 61 60 61 60 58 54 54 51 46 46 48 49 49 50 50 48 47 48 48 47 46 43 43 41 39 43 42 40 42 41 40 39 50 54 57 59 60 59 61 62 64 63
61 60 58 58 58 55 51 49 45 45 47 48 49 50 49 47 46 43 40 41 39 38 39 37 37 40 40 41 41 41 43 41 40 52 52 52 54 56 57 58 59 59 62
60 59 56 56 57 52 48 43 43 44 46 47 50 49 46 44 45 41 41 37 36 35 35 36 35 36 36 39 41 41 43 45 44 47 48 49 50 53 53 53 55 57 59
58 58 56 54 55 51 45 45 45 45 47 47 47 48 47 43 43 41 38 35 34 34 35 36 38 35 36 37 42 44 44 45 46 46 48 47 47 48 48 50 52 54 57
57 58 55 53 54 51 45 46 46 45 46 45 46 48 45 43 42 39 37 34 34 38 40 38 37 37 36 36 42 43 44 45 45 44 42 42 45 45 43 44 48 51 53
55 57 55 52 52 50 47 47 43 44 43 44 45 45 44 43 41 38 36 36 37 37 37 36 36 35 35 36 41 40 43 43 43 42 41 39 38 37 41 41 44 46 48
54 56 55 52 51 50 48 46 44 45 43 42 42 43 44 42 40 37 37 39 38 37 37 35 36 36 35 35 39 40 41 41 39 38 37 36 36 36 35 41 43 43 44
53 56 55 52 51 52 49 46 44 45 42 42 41 42 43 41 41 38 38 40 36 36 37 38 38 36 34 35 33 39 39 39 38 37 36 32 33 35 34 37 38 41 42
54 56 54 52 51 50 48 45 44 42 42 41 41 44 42 41 40 39 38 39 37 38 39 40 37 37 34 35 36 39 40 42 39 36 34 33 32 32 33 35 35 35 36
53 56 54 51 50 50 48 45 43 42 41 41 42 42 41 41 40 38 37 37 37 39 40 40 38 35 34 36 35 31 33 38 39 35 33 30 33 31 31 34 35 33 35
53 55 53 51 50 50 46 44 42 42 42 41 42 42 41 40 38 38 38 38 39 38 38 38 37 37 33 34 35 35 28 26 31 35 35 31 30 30 29 31 33 30 34
53 53 53 52 50 49 46 43 42 40 40 40 41 40 40 39 38 38 38 39 38 37 37 36 37 36 33 32 33 33 36 35 26 26 29 30 25 26 28 31 30 29 31
51 53 54 53 51 50 48 44 43 41 40 40 40 41 39 39 38 37 38 39 38 37 39 37 36 34 33 30 30 29 32 30 28 25 19 23 23 24 25 27 28 29 27
49 53 54 53 50 49 48 46 44 43 40 40 40 40 38 37 37 37 38 38 38 37 35 34 34 34 33 31 30 29 28 27 25 23 22 22 22 21 26 25 24 26 22

GFSSE_sfc_30mbdewp_195.txt.gz
Dewpoint
65 69 69 69 69 69 70 71 71 71 71 71 71 71 71 71 70 70 70 70 70 69 69 68 68 68 67 66 66 66 66 65 65 65 66 66 68 68 66 66 66 66 68
67 70 70 69 69 69 69 70 70 70 71 71 71 70 70 70 70 69 69 69 69 68 68 68 68 68 67 67 67 66 66 65 65 66 66 66 67 68 66 66 67 67 67
67 70 70 69 70 69 69 70 70 70 71 71 70 70 70 70 70 70 69 69 68 68 68 68 69 68 68 67 67 66 66 65 65 66 66 65 67 68 66 66 66 67 67
67 69 71 70 70 70 70 69 70 70 70 70 69 70 70 70 70 70 70 69 69 69 69 69 69 68 67 67 67 66 66 65 65 66 63 63 66 68 67 67 67 66 66
66 69 70 70 70 70 70 69 70 70 69 69 68 68 69 70 69 69 69 68 68 68 68 68 68 67 67 66 66 66 66 65 65 64 62 66 67 68 68 67 66 66 66
65 69 70 70 70 70 70 69 70 69 69 67 67 67 69 70 69 69 68 68 68 68 68 68 68 68 67 67 67 67 66 65 65 63 66 67 67 67 68 69 67 66 66
68 69 69 69 69 70 70 69 69 68 68 67 67 67 69 69 69 67 67 67 67 67 67 67 67 66 65 65 64 63 63 63 62 61 65 67 67 67 67 67 68 66 66
68 68 68 69 69 69 69 69 68 67 67 67 67 67 66 66 66 65 64 64 64 64 64 63 63 62 62 61 60 59 59 59 58 61 61 63 66 67 68 68 67 68 66
67 68 68 68 68 68 67 67 67 66 66 67 67 66 65 64 64 63 62 62 61 61 61 60 60 59 58 57 56 55 54 55 56 56 58 62 65 65 66 67 68 68 67
67 67 67 66 66 66 66 66 66 66 66 66 65 64 63 62 62 62 61 60 59 58 57 56 55 53 51 49 48 48 49 55 57 59 60 63 65 65 66 67 66 66 67
66 66 66 65 65 64 64 65 65 65 65 64 64 62 61 61 60 60 59 58 57 56 54 51 48 47 48 49 50 50 48 56 58 58 62 63 64 64 64 65 65 65 66
64 65 65 65 64 63 63 63 63 64 63 62 61 61 58 57 58 57 57 57 55 53 50 49 47 45 47 45 49 48 49 54 56 56 58 61 61 61 61 62 63 64 65
64 64 65 65 64 62 61 61 61 61 60 60 59 58 57 55 58 55 53 54 52 52 47 48 46 46 44 45 45 45 53 53 54 55 56 57 58 57 58 60 62 63 63
64 64 65 65 63 62 60 60 60 59 58 58 57 54 56 52 50 48 47 49 49 50 50 46 43 43 43 42 43 46 52 50 51 54 56 54 54 54 55 56 61 61 62
63 63 64 64 63 61 59 59 58 57 56 56 55 53 54 51 50 51 51 50 48 44 41 41 42 42 42 43 45 45 50 49 49 52 53 52 52 53 55 58 59 60 60
62 63 64 63 62 61 58 58 56 53 53 53 54 54 52 52 50 45 44 40 40 41 41 41 38 41 42 45 46 48 49 49 48 50 50 50 49 51 52 54 56 59 57
62 63 62 62 62 60 56 55 53 51 52 53 53 52 52 52 48 43 42 39 41 41 40 39 41 41 44 46 46 47 46 48 49 47 47 47 48 49 48 51 54 55 54
62 63 62 61 60 58 53 52 51 51 53 52 52 52 51 49 46 44 43 40 40 40 42 42 42 42 42 45 46 46 45 43 45 47 46 44 44 46 47 48 48 48 50
61 62 61 60 59 57 52 51 49 51 51 52 52 50 49 47 46 43 42 41 42 42 42 40 40 40 41 44 45 46 45 42 40 38 38 39 43 45 46 47 47 46 46
60 62 61 59 58 55 53 51 50 50 50 51 50 49 48 46 45 43 43 40 43 41 41 41 38 39 41 42 42 43 43 41 39 38 37 37 39 43 44 45 46 45 44
58 61 59 57 57 54 52 49 49 48 49 48 48 48 46 45 45 44 42 41 43 40 42 42 39 36 38 43 42 43 43 41 40 36 38 37 37 37 39 43 44 42 41
53 60 58 56 56 54 52 49 48 47 47 47 48 47 46 44 44 43 42 42 44 43 41 41 40 38 37 40 41 42 40 42 39 36 35 34 33 36 34 35 41 39 37
56 59 57 55 55 53 51 49 48 47 46 46 46 45 44 44 43 43 42 43 43 43 41 41 41 37 35 37 39 39 41 40 38 36 33 33 30 33 33 33 34 36 33
56 58 56 55 54 53 51 48 46 45 44 45 45 45 44 43 43 43 43 43 43 43 41 39 39 38 38 34 37 35 34 38 37 32 32 32 30 30 31 33 31 29 31
57 57 55 54 53 52 51 49 46 45 44 45 44 43 43 42 43 43 42 42 42 41 39 37 36 35 37 35 34 35 30 28 30 34 27 27 28 31 31 31 28 25 27
58 57 56 54 54 53 52 49 46 45 45 44 44 42 41 41 42 43 43 41 39 38 37 36 35 34 33 32 32 31 32 29 26 26 27 26 25 28 30 31 25 24 25

GFSSE_sfc_30mbdewp_198.txt.gz
Dewpoint
63 68 68 69 71 71 71 71 71 71 70 70 71 71 70 70 70 70 70 70 70 69 68 68 68 67 66 66 66 66 65 65 65 66 67 67 68 67 66 67 67 67 67
65 68 68 69 70 71 70 70 71 71 71 70 70 70 70 69 69 69 69 70 69 68 68 68 68 67 67 67 66 66 66 66 65 66 66 66 67 67 66 67 67 68 67
67 68 69 69 69 70 70 70 70 71 71 70 70 70 70 70 69 69 69 69 69 68 68 68 68 68 67 67 66 66 66 66 66 65 64 64 66 67 66 67 68 67 67
68 68 68 69 69 70 70 70 70 70 70 70 70 70 70 70 70 70 70 69 69 69 69 69 68 67 67 66 66 65 66 66 65 64 62 63 66 67 67 67 67 66 66
68 69 69 69 69 69 69 70 70 70 70 69 69 70 70 70 70 69 69 68 69 68 69 68 67 67 66 66 66 66 66 65 63 66 64 67 67 68 67 67 66 66 67
68 70 69 69 69 69 69 69 69 69 68 68 67 69 69 69 69 68 68 69 68 68 68 69 68 67 67 66 66 65 65 61 61 66 66 67 67 65 68 67 66 66 66
68 69 69 69 69 69 69 69 69 68 67 66 67 69 70 69 69 68 68 68 68 68 68 68 67 66 65 64 63 62 61 59 61 64 65 66 66 67 67 68 67 66 66
68 69 69 69 69 69 69 69 69 68 67 67 68 69 69 68 67 66 66 66 66 66 65 65 64 63 62 61 60 59 57 60 61 61 63 65 67 67 67 68 68 67 66
68 68 68 69 69 69 68 68 68 67 66 66 67 67 66 66 65 65 64 64 63 63 63 62 61 60 59 57 56 54 55 57 57 59 62 65 67 67 66 67 67 67 66
67 67 67 68 68 67 67 68 67 65 66 67 66 65 65 64 64 63 62 62 61 60 60 58 56 54 52 50 51 53 58 58 59 61 64 66 66 65 65 66 65 66 67
66 66 66 66 66 66 66 66 66 66 66 66 65 64 63 62 62 62 60 60 59 57 55 53 51 49 47 47 50 53 57 58 60 61 63 63 64 64 64 65 65 65 65
65 65 65 65 64 64 65 65 65 66 65 64 63 63 61 60 60 58 59 59 58 55 53 52 49 45 47 45 49 55 56 56 57 57 61 62 61 61 62 64 64 65 66
64 65 65 64 64 63 63 63 63 63 63 62 62 60 58 58 58 58 57 57 55 54 50 48 46 46 45 47 48 53 54 54 55 56 56 57 57 58 59 63 63 63 64
64 65 65 64 63 62 62 62 62 62 61 60 60 58 56 56 57 55 52 51 48 50 45 46 45 43 43 44 52 52 50 53 54 54 55 56 55 55 57 61 61 61 61
63 64 65 64 63 62 61 61 60 60 60 59 58 57 56 54 55 48 46 48 47 49 47 44 43 42 42 44 50 49 49 50 52 52 53 54 55 58 60 60 59 59 59
63 64 65 64 63 62 60 60 59 59 58 57 56 55 55 52 52 49 48 49 49 45 43 42 42 41 43 47 50 50 48 49 50 50 50 53 53 55 57 59 57 57 56
62 63 64 64 64 61 60 59 59 58 56 56 56 55 54 52 50 49 48 45 43 42 41 40 41 43 46 47 49 50 48 48 48 47 48 49 50 52 56 54 54 53 53
62 62 63 64 63 61 59 58 58 56 54 54 54 54 53 52 49 45 43 40 41 41 40 41 41 43 46 47 46 47 48 47 46 45 45 46 47 48 50 49 50 50 50
62 62 63 64 63 61 59 57 55 53 53 53 53 53 52 51 48 44 43 40 41 41 41 41 42 42 45 46 45 45 45 45 45 43 43 44 46 46 48 47 47 46 45
61 62 63 63 62 61 57 54 52 52 52 52 52 51 50 49 47 44 43 41 41 42 42 41 40 41 45 46 45 43 41 40 39 39 40 43 45 46 46 45 45 45 43
61 62 62 61 61 60 54 52 50 50 51 51 51 50 48 47 46 43 42 42 42 42 42 40 39 41 43 44 43 42 42 40 37 38 38 40 42 44 45 44 42 39 38
59 61 62 61 60 59 55 53 49 49 50 50 49 49 47 46 45 44 42 42 42 41 42 40 39 39 40 43 41 41 39 38 37 36 37 37 37 39 40 41 38 36 34
45 60 61 61 59 58 56 52 49 48 48 48 48 47 46 44 44 44 43 43 43 43 42 41 39 37 39 39 42 41 40 38 34 35 34 34 34 35 38 40 35 33 31
55 54 61 61 58 57 55 50 48 47 46 46 47 46 44 44 43 43 43 43 43 43 42 41 41 38 37 37 38 36 39 39 34 29 32 32 32 32 34 34 33 31 30
55 58 60 58 57 56 53 50 49 48 47 46 45 44 43 43 43 43 43 43 43 42 40 38 38 38 37 38 36 33 30 33 36 30 29 29 31 32 31 29 29 27 26
51 55 55 55 55 53 52 51 50 49 46 45 44 43 42 42 43 43 42 41 40 39 37 36 35 36 35 35 34 33 31 29 30 30 28 27 27 30 30 26 26 27 27

GFSSE_sfc_30mbdewp_201.txt.gz
Dewpoint
62 68 69 71 71 71 71 70 70 70 70 70 71 71 71 71 71 70 70 70 70 69 68 68 67 67 66 65 66 66 66 65 65 66 67 68 67 66 67 67 68 67 67
63 68 69 70 71 71 70 70 70 70 70 70 70 70 70 70 70 70 70 70 69 68 68 67 67 66 66 66 66 66 66 65 65 64 65 67 67 66 66 67 68 67 67
64 67 69 70 71 71 71 70 70 70 70 70 70 69 69 69 70 70 70 70 69 68 68 68 67 67 67 66 66 66 66 64 64 64 64 65 67 66 66 68 68 67 67
64 67 68 69 70 70 70 71 70 70 70 70 70 70 70 69 69 69 69 69 69 68 69 68 68 67 66 65 65 66 66 64 64 64 62 65 67 67 67 67 66 66 66
64 66 67 68 70 70 70 70 70 70 70 70 70 70 70 70 70 70 69 69 70 70 69 68 67 66 66 66 66 66 63 64 66 64 66 67 67 68 68 66 66 66 66
66 67 68 68 69 69 70 70 70 70 69 69 69 70 70 69 69 68 68 68 69 69 68 68 67 67 66 66 65 63 60 61 66 67 67 67 67 67 67 66 66 66 66
68 68 68 68 68 69 69 70 69 68 68 68 69 69 69 69 68 68 68 69 69 69 69 68 67 66 65 64 62 60 59 63 64 65 66 66 67 67 68 67 66 66 66
68 68 68 68 68 69 69 69 68 67 66 67 68 69 69 69 68 68 67 68 68 68 67 66 65 64 62 61 58 57 61 62 62 63 65 67 68 67 67 68 67 66 66
68 68 68 69 69 69 68 68 67 67 66 67 69 69 69 68 67 67 67 67 66 66 65 64 62 61 60 56 54 54 59 59 60 62 64 67 67 66 67 67 67 67 66
67 67 68 68 68 68 68 68 67 67 67 67 68 67 66 66 65 65 65 64 64 63 62 61 59 56 53 53 53 58 59 61 62 64 65 66 65 65 65 65 65 66 66
65 66 67 67 67 67 67 68 67 66 66 66 66 65 65 64 63 63 62 62 62 61 59 57 54 50 47 51 56 59 60 60 61 62 63 63 64 64 64 64 65 65 63
64 64 65 66 66 66 66 67 66 66 65 65 65 64 63 62 61 60 60 60 59 57 56 53 48 45 46 49 58 58 57 57 58 59 61 61 60 61 63 63 65 65 66
64 65 65 65 65 65 65 65 65 65 64 64 64 62 61 60 60 58 58 59 56 55 52 48 46 46 48 51 54 55 55 55 55 56 58 58 59 59 60 63 63 64 64
64 64 65 65 64 64 64 64 64 64 63 63 62 61 59 58 57 56 55 54 51 50 45 45 45 44 46 52 53 52 53 53 53 54 56 57 57 56 60 61 61 61 61
63 63 65 64 64 63 63 63 63 63 63 62 61 59 57 56 56 55 53 50 47 48 46 45 43 43 47 51 50 51 51 51 51 53 55 56 58 60 61 59 59 60 59
64 64 65 64 64 62 62 62 62 61 61 60 59 59 56 55 56 52 49 46 46 48 47 43 42 42 47 49 48 49 50 50 49 51 52 53 57 58 60 58 57 55 54
63 64 64 64 64 62 61 61 61 61 60 59 58 57 56 54 54 52 46 47 47 46 44 42 42 45 48 50 48 48 48 47 47 48 49 50 53 54 56 55 54 54 53
62 63 63 64 64 62 61 60 60 59 58 58 56 56 55 54 52 51 48 47 47 43 42 41 42 46 48 49 48 47 47 45 46 46 47 48 48 49 51 51 50 49 48
62 62 63 64 64 63 61 60 59 58 57 57 55 55 54 53 52 49 47 45 44 41 41 41 42 46 47 47 47 47 46 44 44 44 45 47 48 47 48 47 46 46 46
62 62 62 63 64 63 61 59 58 56 56 55 55 54 53 53 51 47 44 41 42 41 41 42 41 44 47 45 46 44 44 44 43 43 44 46 46 46 46 45 44 43 42
61 61 62 62 63 63 60 58 56 55 54 53 54 53 52 51 50 46 43 41 42 41 41 41 41 44 45 45 42 41 39 38 39 40 43 45 45 45 43 41 38 36 37
51 57 61 62 63 62 61 59 57 56 53 52 52 51 51 50 48 45 43 42 41 41 42 40 40 42 43 44 40 40 35 35 36 37 39 42 44 44 41 37 34 34 33
54 56 56 61 62 62 61 58 52 50 49 50 50 50 49 48 46 44 42 42 42 42 41 40 40 41 42 44 41 40 36 34 34 35 35 37 39 41 38 36 32 31 31
51 55 55 57 62 61 61 57 52 52 51 50 50 50 47 46 45 44 42 42 42 42 42 41 40 39 42 42 40 37 41 37 32 31 32 33 36 39 38 32 30 30 30
49 52 56 56 61 60 60 57 51 50 51 49 50 48 47 45 45 44 43 42 43 43 42 41 40 38 39 41 40 34 35 36 33 31 30 30 32 34 33 31 31 28 28
47 48 53 55 55 55 57 55 51 51 48 48 48 48 46 45 44 43 43 43 43 42 40 39 38 39 37 37 37 34 33 35 32 30 30 29 30 30 29 29 28 26 29

GFSSE_sfc_30mbdewp_204.txt.gz
Dewpoint
61 68 70 71 71 70 70 70 70 70 70 70 70 70 71 71 71 71 70 69 69 67 67 68 67 66 65 65 66 66 65 65 66 68 68 67 66 67 67 68 67 67 66
64 69 70 71 71 70 70 70 70 70 70 70 70 70 71 71 70 70 70 69 69 67 68 67 66 66 66 66 66 66 65 65 64 65 68 68 66 66 67 68 68 67 66
65 69 70 71 71 70 70 70 70 70 70 70 70 70 70 70 70 69 70 69 68 67 67 67 67 66 66 66 66 66 65 64 64 64 66 67 66 66 67 68 67 66 66
66 68 70 70 70 70 70 70 70 70 70 70 69 69 70 70 70 70 70 69 69 68 67 67 67 66 66 66 66 65 64 64 65 64 64 67 66 67 67 66 66 66 66
65 67 69 70 70 70 70 70 70 70 70 70 69 69 69 69 69 69 69 69 69 69 68 67 66 66 66 66 65 63 63 66 65 64 66 67 68 68 66 66 66 66 66
65 66 69 69 70 70 70 70 70 70 70 70 70 70 70 70 70 69 69 69 70 69 68 67 66 66 66 65 63 61 61 66 66 67 67 68 68 67 66 66 66 66 66
65 67 68 69 69 70 70 70 70 69 69 69 70 70 70 69 69 68 68 69 69 69 69 68 67 66 64 63 60 59 61 65 65 66 65 66 67 67 67 66 66 66 66
66 67 67 68 69 69 69 69 68 68 68 68 69 69 69 69 68 68 68 69 69 68 67 67 66 64 62 60 58 62 63 63 64 65 66 67 67 66 67 67 66 66 66
67 66 67 68 68 68 68 68 67 67 66 67 68 69 69 68 68 67 68 68 68 67 67 65 64 62 58 56 56 60 61 62 63 65 66 67 66 66 66 67 67 66 66
66 66 67 67 68 68 68 67 66 66 66 67 69 69 68 67 67 66 66 66 66 65 64 63 61 57 54 53 58 60 62 63 64 65 65 65 66 66 65 65 65 66 66
64 66 66 67 67 67 67 67 67 66 66 68 68 67 66 65 65 65 64 64 64 63 62 60 56 52 53 58 60 61 62 62 62 62 62 64 64 64 64 65 65 64 62
62 64 65 66 67 66 67 67 67 67 66 66 66 65 64 64 63 62 62 63 62 60 58 54 50 50 50 58 60 60 59 59 59 60 61 61 61 62 63 63 65 65 64
63 63 64 65 66 66 66 66 66 65 65 65 64 63 62 61 61 60 60 60 58 56 53 49 47 46 51 55 57 56 56 56 56 57 58 59 60 59 61 61 63 64 65
63 63 63 65 65 65 65 65 65 65 64 64 63 62 61 59 59 57 57 56 54 50 47 44 45 47 51 54 55 54 54 54 54 55 58 58 56 58 61 61 61 61 62
63 63 63 64 65 64 64 64 64 64 64 64 62 61 60 58 57 56 54 53 49 46 44 45 44 46 52 52 52 52 52 52 53 54 56 59 59 61 60 60 59 59 59
63 64 63 64 64 64 63 63 63 63 63 62 61 60 58 57 56 54 53 49 46 47 46 44 43 47 51 50 50 50 50 51 52 53 55 57 59 60 59 57 56 55 57
63 63 63 64 64 63 63 62 62 62 62 61 60 60 58 56 55 54 50 48 45 47 46 43 43 48 49 49 49 49 48 49 49 50 52 52 56 56 56 55 54 52 51
63 63 64 64 63 63 63 62 62 62 61 61 59 59 58 55 54 53 49 46 47 45 44 42 44 48 48 48 47 46 46 46 47 48 49 49 50 52 52 51 50 49 48
63 63 63 64 63 62 62 62 61 60 60 60 59 58 57 56 54 53 51 47 47 44 42 42 45 48 48 47 46 45 45 45 45 46 47 48 48 48 48 48 47 48 48
62 62 62 63 64 64 63 61 60 59 60 59 58 57 56 56 54 52 50 47 46 43 42 42 44 47 47 47 44 42 42 42 43 45 46 46 46 45 44 43 42 44 45
55 58 62 62 63 63 62 60 59 58 58 57 57 56 55 55 53 51 49 46 44 43 41 41 44 46 46 44 42 39 38 39 40 42 45 45 45 43 41 38 37 36 38
53 55 56 60 62 63 63 61 60 59 58 56 55 55 55 54 53 51 48 44 43 42 41 41 43 45 44 44 41 38 35 36 36 38 42 44 43 41 37 34 33 33 34
48 53 55 55 57 63 63 62 56 54 52 52 52 53 53 53 52 50 47 43 42 42 41 41 42 45 44 43 41 38 34 33 34 35 38 41 42 39 36 32 31 32 32
46 50 54 55 57 61 63 62 58 57 56 53 54 53 52 52 50 49 46 44 42 42 42 41 42 44 45 42 41 39 41 36 32 32 33 35 40 38 34 31 29 29 29
45 47 51 54 55 57 62 62 58 56 57 53 52 52 51 50 50 48 46 44 43 42 42 42 41 41 45 43 41 36 36 35 34 32 31 32 35 36 33 30 30 30 31
42 43 47 50 53 55 56 56 56 56 54 52 51 51 51 50 49 47 46 45 44 43 43 42 41 40 42 44 40 36 36 34 32 31 31 31 34 32 30 30 28 28 30

GFSSE_sfc_30mbdewp_210.txt.gz
Dewpoint
58 64 69 70 71 70 71 71 72 72 72 72 72 72 72 72 72 71 71 71 69 68 68 68 67 67 66 66 66 67 68 69 70 68 67 67 67 67 67 67 66 62 65
58 66 68 71 71 70 70 71 72 72 72 72 72 72 72 72 71 71 71 69 67 67 68 67 67 66 66 66 65 65 65 66 68 69 68 66 67 67 67 67 67 65 66
60 66 69 70 70 70 70 71 71 72 72 72 72 72 72 71 71 71 70 68 67 67 67 67 67 66 66 66 65 65 64 64 66 69 68 60 63 67 67 67 66 66 66
61 65 66 70 70 69 69 70 71 71 71 71 71 71 71 71 70 70 69 68 67 67 67 67 66 66 66 66 65 64 63 64 64 67 63 60 60 67 67 66 66 66 65
60 63 65 70 70 69 69 69 70 70 70 70 71 71 70 70 70 69 69 68 69 67 67 66 66 66 66 65 64 63 65 65 64 64 59 61 60 66 66 66 65 65 65
59 60 68 70 70 69 69 69 70 70 70 70 70 70 70 70 70 69 69 69 68 68 67 66 66 66 65 63 62 62 66 65 64 61 60 62 62 66 65 65 66 66 65
58 60 67 69 70 70 70 70 70 70 69 69 70 70 70 70 70 69 69 69 70 68 67 67 67 65 64 62 61 66 66 65 63 59 59 60 64 67 66 66 66 66 65
60 63 65 69 70 69 70 70 70 69 69 69 69 69 70 70 69 69 69 69 69 69 68 67 66 65 62 61 61 65 66 66 62 60 60 60 66 67 67 66 66 66 65
61 63 65 66 68 69 70 69 69 69 69 69 69 69 69 69 69 69 69 69 69 67 67 66 65 63 61 61 63 64 64 65 61 60 59 62 66 66 66 67 66 66 65
61 62 63 64 66 67 67 68 67 68 68 69 69 69 69 68 68 68 69 69 68 67 67 65 63 60 58 61 62 63 64 65 60 60 59 63 66 65 65 65 66 66 66
62 61 61 63 64 65 66 66 67 67 68 68 68 68 67 64 65 66 65 68 67 67 65 63 60 57 58 61 63 63 64 58 60 60 62 65 65 65 64 65 65 64 66
63 61 60 62 63 65 63 65 65 64 64 64 64 66 64 63 64 63 65 66 66 64 63 60 56 56 56 56 59 62 60 60 60 60 62 64 64 63 63 64 65 64 66
63 63 61 62 63 63 62 63 63 63 62 63 64 66 65 66 66 64 64 63 63 62 59 56 52 51 51 52 55 56 58 61 60 60 60 62 62 61 62 63 64 65 65
61 62 62 61 63 64 61 62 62 61 62 63 65 66 66 65 64 63 61 60 60 58 56 53 50 48 52 50 54 56 59 58 59 57 58 58 61 61 60 61 63 64 65
61 62 63 63 64 64 64 62 62 62 63 63 65 66 65 64 63 62 61 59 57 55 54 50 45 46 49 52 54 56 58 57 56 52 52 57 61 60 60 60 60 61 62
62 63 65 65 65 65 65 64 63 64 63 65 65 66 66 64 63 62 61 60 56 54 50 47 44 44 48 51 55 56 55 53 52 52 52 57 61 60 60 59 58 59 59
61 63 64 65 65 66 65 65 65 64 64 65 65 65 66 66 65 63 61 59 56 53 48 45 46 46 48 51 52 53 52 52 52 53 54 59 56 56 55 54 53 55 57
60 61 64 64 65 65 65 65 65 64 64 64 65 65 65 66 65 64 62 59 55 51 47 43 44 47 48 49 50 49 48 49 51 52 54 56 55 52 52 52 51 52 52
59 62 63 64 64 64 65 65 65 65 65 64 65 65 65 65 64 64 62 60 57 51 45 43 43 45 47 47 47 47 47 48 51 50 52 55 53 52 51 51 50 50 49
61 62 63 64 65 65 65 65 65 65 65 65 65 65 65 64 63 63 63 60 56 50 45 44 44 46 46 46 44 45 46 46 48 50 51 52 52 52 50 49 47 47 48
53 56 58 59 61 63 65 63 63 62 63 63 64 64 64 64 63 62 61 61 56 50 44 45 46 46 45 46 43 45 45 46 47 48 49 49 50 50 49 48 44 44 46
43 45 47 51 57 58 60 63 62 62 62 62 62 62 63 63 63 61 61 60 58 52 48 47 46 46 45 46 42 41 41 42 44 45 45 46 48 46 46 42 40 39 41
39 41 41 43 50 57 59 61 62 61 59 60 61 61 61 62 62 62 61 61 60 56 51 49 49 47 44 46 43 39 38 36 40 43 45 44 44 41 39 38 36 36 36
37 39 39 39 40 47 58 56 60 57 56 56 58 59 60 60 61 61 60 60 59 58 54 52 50 49 46 45 45 42 42 39 39 39 42 43 43 41 39 36 35 32 31
36 38 39 36 35 39 44 51 55 55 55 56 59 60 60 60 60 60 60 59 59 56 55 53 51 51 49 45 45 44 43 41 40 37 38 41 43 41 39 36 33 31 31
27 32 37 37 36 39 41 42 45 49 52 54 55 57 57 58 59 58 58 58 57 56 55 54 52 52 51 48 46 46 44 40 39 37 36 39 40 40 38 35 34 32 30

GFSSE_sfc_30mbdewp_213.txt.gz
Dewpoint
57 64 70 71 71 71 72 72 72 71 71 72 72 72 72 72 72 71 71 71 70 69 69 69 68 67 67 66 67 69 69 70 69 68 67 67 67 66 67 67 66 62 66
59 64 70 71 71 71 72 72 71 71 72 72 72 72 72 72 71 71 71 70 68 68 68 68 67 67 66 65 66 67 68 69 69 68 68 67 67 66 66 66 66 65 66
61 63 67 71 70 71 72 72 72 72 72 72 72 72 72 71 71 71 69 69 68 67 67 67 67 66 66 65 65 65 65 66 69 68 68 62 63 66 67 66 66 65 66
62 64 64 70 70 70 71 72 72 72 72 72 72 72 71 71 71 70 69 68 68 68 67 67 66 66 66 65 64 64 64 64 65 67 66 62 59 66 66 65 65 66 66
61 62 65 70 70 70 71 71 72 72 72 72 72 71 71 71 71 70 69 68 68 67 67 66 67 66 65 65 63 63 64 64 63 64 64 62 60 65 66 66 65 64 66
61 60 69 70 70 70 70 71 71 71 71 71 71 71 71 70 70 69 69 69 69 68 66 66 66 66 64 64 62 61 65 65 64 62 60 59 63 66 65 65 65 65 66
59 60 68 69 69 69 69 70 70 70 70 70 70 70 70 70 70 69 68 69 69 68 67 67 66 65 64 62 61 65 65 65 62 61 56 61 65 66 66 66 66 65 65
58 63 66 69 69 69 69 70 69 69 69 69 70 70 70 70 69 69 68 69 69 68 68 67 66 65 63 61 61 65 66 66 63 61 57 65 67 67 66 66 66 65 65
60 63 64 66 68 69 70 69 69 69 68 69 69 69 69 69 69 68 68 69 69 68 67 67 65 63 61 61 63 64 65 65 65 60 58 63 67 66 66 66 66 66 65
61 63 63 63 65 67 67 69 68 68 68 68 68 69 69 68 68 68 69 69 68 67 67 66 64 61 59 61 62 63 64 65 63 60 64 65 66 66 65 65 66 66 65
61 62 62 62 63 65 65 67 68 68 68 68 68 68 68 64 66 67 65 68 68 67 66 65 62 59 58 61 62 63 64 59 61 63 64 65 65 65 64 64 64 65 66
61 61 61 61 63 64 62 65 65 64 65 64 64 66 64 62 63 62 65 68 67 66 65 63 60 57 57 57 59 62 60 60 62 63 63 65 64 63 63 64 64 64 66
63 61 60 61 63 63 61 64 63 62 62 63 63 65 63 63 64 63 66 64 64 65 63 60 57 55 54 52 54 55 57 59 60 61 61 63 63 62 62 62 63 65 66
60 63 62 61 62 63 61 61 62 60 62 61 63 65 65 65 66 65 63 61 61 61 59 58 55 53 50 51 51 53 55 55 59 60 60 60 62 61 61 62 64 65 65
56 61 62 62 63 63 63 60 61 62 63 63 65 66 67 66 66 63 61 59 57 56 56 54 50 49 49 49 50 52 54 54 54 53 57 58 62 61 60 60 62 63 64
55 59 63 63 63 64 64 63 64 64 64 64 66 66 67 66 65 64 63 60 57 55 53 52 48 46 46 47 50 52 53 54 55 52 52 57 61 61 60 59 60 60 60
54 60 62 65 66 66 65 65 64 65 64 65 64 66 66 66 65 64 63 62 58 56 54 50 47 45 43 46 50 52 53 53 51 51 52 59 58 58 58 58 58 57 57
54 57 62 64 65 66 66 66 65 65 64 65 66 65 66 65 65 65 64 62 60 57 54 49 45 43 44 46 48 50 50 50 50 51 56 58 56 54 53 54 55 55 56
52 57 60 65 65 66 66 65 66 66 66 65 66 66 66 66 65 65 64 64 62 59 53 49 44 44 44 46 47 48 48 48 50 50 56 56 55 53 52 53 52 51 51
61 62 64 64 65 66 66 66 66 66 66 66 66 66 66 66 66 66 64 64 63 60 55 50 46 44 44 45 44 45 47 47 49 48 53 55 54 54 52 50 49 49 49
54 56 57 59 61 63 64 64 64 63 64 65 65 66 66 66 65 65 64 63 63 60 56 52 48 46 45 46 44 44 46 46 48 48 49 51 53 53 52 49 47 46 47
44 45 48 51 54 55 59 63 62 62 62 62 63 64 65 65 65 64 64 63 63 60 57 52 49 46 47 47 45 43 43 44 45 47 47 48 50 50 49 48 46 44 45
39 38 39 41 44 53 55 59 62 62 61 60 61 62 63 63 64 63 63 62 62 61 57 52 51 49 47 47 48 42 40 38 42 44 46 46 48 47 47 47 43 40 42
36 38 36 34 34 38 44 48 53 51 49 49 51 56 60 61 62 63 63 62 62 61 59 55 52 51 50 47 48 46 42 38 39 40 43 45 45 46 44 41 39 38 37
35 36 36 33 34 36 38 41 41 41 43 43 46 55 57 60 61 62 62 62 61 61 61 58 55 53 52 49 48 48 45 43 44 39 40 43 44 44 41 40 37 36 34
29 32 34 32 30 34 38 38 39 41 42 42 43 45 48 53 58 60 60 60 61 60 60 58 58 55 53 51 49 49 47 44 44 42 38 43 43 43 41 40 38 34 33

GFSSE_sfc_30mbdewp_216.txt.gz
Dewpoint
59 68 71 72 72 72 72 71 71 71 72 72 72 72 72 72 71 71 72 71 70 69 68 69 68 67 67 67 68 69 70 69 69 68 68 67 66 67 67 67 64 64 65
63 67 71 71 72 72 72 71 71 71 72 72 72 72 72 71 71 71 71 70 69 68 68 68 67 66 66 66 67 68 69 69 68 68 68 67 66 66 66 67 66 66 65
64 67 69 70 71 72 72 71 71 72 72 72 72 72 72 71 71 71 70 69 68 66 68 67 67 66 65 65 65 66 66 67 69 68 68 64 66 66 66 67 67 66 65
64 66 67 70 71 72 72 72 72 72 72 72 72 72 72 71 71 70 69 69 67 67 67 67 66 66 65 65 64 64 63 63 65 68 67 66 63 66 65 65 65 66 65
62 64 68 70 70 71 72 72 72 72 72 72 72 72 71 71 70 69 68 69 68 68 67 67 67 66 65 64 63 63 63 63 64 64 65 63 63 66 66 66 64 66 66
62 62 68 69 70 71 71 72 72 72 72 72 71 71 71 71 70 69 68 69 69 68 67 67 66 65 64 63 61 61 63 63 65 63 64 64 63 65 65 66 65 66 66
61 68 69 69 69 70 71 72 71 71 71 71 71 71 71 70 70 69 69 69 69 68 67 67 66 64 63 62 61 63 64 64 65 63 64 65 66 66 66 66 65 65 65
67 68 68 69 69 69 70 70 70 70 70 70 70 70 70 70 69 68 68 69 69 68 67 67 65 64 63 61 60 62 65 66 64 65 64 65 67 67 66 66 66 65 65
68 68 68 68 69 69 69 69 69 69 69 69 69 70 70 69 68 68 68 68 69 68 67 66 65 64 62 61 62 63 64 65 65 64 65 67 67 67 67 66 66 65 65
64 66 66 66 68 69 69 68 68 68 68 68 69 69 69 68 68 68 68 69 69 68 67 66 65 62 60 60 62 62 63 64 64 65 65 66 67 66 65 65 66 66 65
63 64 64 65 66 68 68 68 68 68 68 68 68 68 68 67 67 67 67 69 68 67 67 66 64 61 59 60 61 62 63 63 63 65 65 66 66 65 64 64 64 65 66
62 64 63 64 66 67 64 68 68 67 67 67 66 68 66 64 65 65 65 68 68 67 66 65 63 60 58 59 60 61 62 62 64 64 65 65 65 64 63 63 64 63 66
62 62 63 64 66 66 64 67 66 65 65 65 65 66 66 64 65 66 67 67 67 66 65 63 60 58 58 58 59 59 60 62 62 62 64 64 63 63 62 61 61 64 66
62 62 62 64 66 66 65 67 64 64 64 65 65 66 65 65 65 65 66 65 65 64 63 62 60 58 58 57 55 56 58 58 62 61 62 63 63 62 62 60 62 65 65
60 63 62 63 66 66 66 65 64 63 64 64 65 66 66 66 66 65 66 65 63 63 63 61 58 57 56 52 51 53 55 56 59 61 60 62 62 62 61 61 63 65 65
58 63 64 64 65 66 65 65 64 66 65 65 66 66 67 67 66 65 65 64 62 60 60 59 56 54 51 51 51 53 54 55 56 58 59 61 61 61 60 61 62 62 62
52 63 64 64 66 66 65 65 65 66 66 65 67 67 67 67 66 66 66 64 62 60 58 56 54 51 49 49 51 53 55 56 56 54 57 61 60 60 60 60 60 59 59
55 58 64 66 67 67 66 66 67 66 65 65 66 67 67 67 67 66 65 65 62 62 58 55 52 49 47 48 50 53 54 54 53 52 59 58 58 56 57 58 58 57 58
51 61 64 66 67 66 67 66 66 66 67 66 66 66 67 67 66 66 66 65 64 62 59 56 52 49 47 47 49 52 53 52 52 51 58 57 55 53 53 55 56 56 56
63 65 66 66 67 67 67 67 67 66 67 67 66 66 66 66 66 66 65 65 64 63 60 56 51 49 47 48 46 50 51 51 52 52 57 57 55 54 52 52 52 52 51
58 59 62 65 66 65 65 65 64 64 64 65 66 66 66 67 66 66 66 65 65 63 61 57 53 50 47 49 48 49 50 50 51 51 57 56 55 55 52 51 50 49 50
50 52 54 55 60 64 64 64 63 63 63 64 64 64 65 65 66 65 65 64 64 63 62 60 54 50 48 48 48 46 46 47 48 51 52 56 55 54 53 52 51 48 48
43 43 44 46 47 46 57 63 62 61 62 61 62 63 64 64 65 65 64 64 64 63 62 60 57 51 47 49 50 46 44 44 45 47 49 51 54 53 52 51 50 48 47
40 39 37 37 37 41 45 47 49 49 50 51 53 62 62 63 64 64 63 64 63 62 62 61 59 55 52 49 51 50 46 44 43 43 47 49 51 51 51 50 48 43 47
39 39 37 36 38 39 41 42 43 44 45 45 46 48 53 57 60 62 63 63 62 62 62 61 59 57 55 52 52 49 49 48 47 42 43 45 48 50 49 47 44 42 42
37 38 37 32 33 37 39 40 41 42 44 44 44 44 46 48 55 59 60 61 61 61 61 61 60 59 56 55 53 53 50 49 46 46 42 44 45 47 47 44 42 40 39